Volver al catálogo

STARLINK-35963

ActivoComunicacionesVLEO
NORAD 66585·PAYLOAD·🇺🇸 United States

Lanzado Nov 21, 2025 desde Cape Canaveral Space Force Station

Loading…

Próximos Pases (próximas 24 horas)

TLE

ActualizadoSource: CelesTrak SupGP

Época: Sep 14, 2026, 23:12 UTC

1 66585C 25268AE  26257.96715278 -.00019120  00000+0 -69242-3 0  2577
2 66585  43.0019 358.4831 0001490 274.5046  67.7145 15.27593171    15

Sigue STARLINK-35963 en tiempo real con AllMySat

Download on the App Store